WA5KWK Weather Reports


Display with metric or nautical units.
time (UTC)temp
F
wind
direction
speed
MPH
gust
MPH
rain 1hr
in
rain 24hr
in
rain mn
in
humidity
%
barometer
mb
20260905200004 73 212 7.0 16.0 0.00 0.00 0.00 46 1015.4
20260905194005 72 174 5.0 9.0 0.00 0.00 0.00 42 1015.6
20260905193505 72 140 6.0 10.0 0.00 0.00 0.00 45 1015.6
20260905192504 73 143 6.0 12.0 0.00 0.00 0.00 45 1015.8
20260905192005 72 169 5.0 12.0 0.00 0.00 0.00 46 1015.8
20260905191504 71 243 7.0 12.0 0.00 0.00 0.00 45 1015.8
20260905191004 71 226 5.0 10.0 0.00 0.00 0.00 44 1015.8
20260905190005 70 228 6.0 9.0 0.00 0.00 0.00 44 1015.7
20260905185504 70 198 7.0 12.0 0.00 0.00 0.00 43 1015.6
20260905185005 72 214 6.0 9.0 0.00 0.00 0.00 42 1015.8
20260905184505 72 224 4.0 9.0 0.00 0.00 0.00 44 1015.8
20260905183505 73 181 3.0 12.0 0.00 0.00 0.00 45 1015.8
20260905182005 71 240 5.0 7.0 0.00 0.00 0.00 44 1015.8
20260905181504 70 174 4.0 9.0 0.00 0.00 0.00 45 1015.8
20260905181005 70 194 6.0 12.0 0.00 0.00 0.00 45 1015.7
20260905180505 69 172 7.0 12.0 0.00 0.00 0.00 44 1015.6
20260905180005 69 215 6.0 9.0 0.00 0.00 0.00 45 1015.6
20260905175505 70 184 4.0 8.0 0.00 0.00 0.00 43 1015.5
20260905175004 69 191 5.0 9.0 0.00 0.00 0.00 43 1015.5
20260905174004 70 233 5.0 9.0 0.00 0.00 0.00 46 1015.6
20260905173505 70 242 6.0 12.0 0.00 0.00 0.00 46 1015.6
20260905172504 69 212 3.0 8.0 0.00 0.00 0.00 49 1015.6
20260905172005 69 176 4.0 7.0 0.00 0.00 0.00 49 1015.6
20260905171005 69 238 1.0 8.0 0.00 0.01 0.00 47 1015.4
20260905170505 69 195 5.0 8.0 0.00 0.01 0.00 47 1015.6
20260905165504 69 207 5.0 7.0 0.00 0.01 0.00 49 1015.3
20260905165004 68 219 4.0 10.0 0.00 0.01 0.00 48 1015.3
20260905164005 69 238 4.0 7.0 0.00 0.01 0.00 47 1015.2
20260905163504 69 176 3.0 8.0 0.00 0.01 0.00 48 1015.3
20260905163005 69 219 3.0 7.0 0.00 0.01 0.00 47 1015.2
20260905162504 69 172 4.0 9.0 0.00 0.01 0.00 47 1015.2
20260905162005 69 179 4.0 7.0 0.00 0.01 0.00 47 1015.2
20260905161504 69 173 2.0 6.0 0.00 0.01 0.00 49 1015.2
20260905161004 68 165 3.0 5.0 0.00 0.01 0.00 50 1015.2
20260905160505 67 180 2.0 8.0 0.00 0.01 0.00 51 1015.2
20260905160004 66 202 2.0 6.0 0.00 0.01 0.00 54 1015.0
20260905155505 66 202 2.0 5.0 0.00 0.01 0.00 54 1015.0
20260905155004 65 221 1.0 3.0 0.00 0.01 0.00 53 1015.0
20260905154504 65 221 1.0 3.0 0.00 0.01 0.00 55 1015.1
20260905154004 65 221 2.0 3.0 0.00 0.01 0.00 54 1015.0
20260905152504 65 282 1.0 3.0 0.00 0.01 0.00 54 1015.0
20260905152005 65 284 2.0 3.0 0.00 0.01 0.00 55 1015.0
20260905151505 64 355 1.0 3.0 0.00 0.01 0.00 55 1014.8
20260905151005 64 355 1.0 3.0 0.00 0.01 0.00 55 1014.9
20260905150505 64 355 1.0 2.0 0.00 0.01 0.00 55 1014.9
20260905150005 63 355 0.0 2.0 0.00 0.01 0.00 56 1014.9
20260905145504 63 355 1.0 2.0 0.00 0.01 0.00 56 1014.8
20260905144505 62 355 0.0 1.0 0.00 0.01 0.00 58 1014.8
20260905144005 61 355 1.0 1.0 0.00 0.01 0.00 60 1014.9
20260905143505 61 355 0.0 0.0 0.00 0.01 0.00 59 1014.8
20260905142504 61 355 0.0 1.0 0.00 0.01 0.00 58 1014.8
20260905142005 61 355 0.0 1.0 0.00 0.01 0.00 58 1014.8
20260905141504 61 355 0.0 0.0 0.00 0.01 0.00 58 1014.7
20260905141004 61 355 0.0 0.0 0.00 0.01 0.00 58 1014.7
20260905140504 61 355 0.0 0.0 0.00 0.01 0.00 57 1014.6
20260905135505 61 355 0.0 1.0 0.00 0.01 0.00 56 1014.6
20260905135004 61 355 0.0 1.0 0.00 0.01 0.00 56 1014.5
20260905134504 61 355 1.0 2.0 0.00 0.01 0.00 56 1014.4
20260905134004 61 355 1.0 2.0 0.00 0.01 0.00 55 1014.4
20260905133505 61 355 1.0 3.0 0.00 0.01 0.00 55 1014.5
20260905133005 61 355 1.0 3.0 0.00 0.01 0.00 55 1014.4
20260905132504 61 355 1.0 2.0 0.00 0.01 0.00 55 1014.4
20260905131505 61 355 2.0 3.0 0.00 0.01 0.00 56 1014.5
20260905131004 61 355 2.0 3.0 0.00 0.01 0.00 56 1014.4
20260905130504 61 355 1.0 3.0 0.00 0.01 0.00 56 1014.5
20260905130005 61 355 1.0 3.0 0.00 0.01 0.00 57 1014.1
20260905125504 61 355 2.0 3.0 0.00 0.01 0.00 57 1014.2
20260905125004 61 355 2.0 3.0 0.00 0.01 0.00 57 1014.3
20260905124504 61 355 2.0 3.0 0.00 0.01 0.00 57 1014.3
20260905124004 61 355 0.0 2.0 0.00 0.01 0.00 57 1014.3
20260905123504 61 355 1.0 3.0 0.00 0.01 0.00 57 1014.4
20260905122504 60 355 1.0 2.0 0.00 0.01 0.00 58 1014.4
20260905122004 60 355 2.0 3.0 0.00 0.01 0.00 58 1014.4
20260905121504 59 355 2.0 3.0 0.00 0.01 0.00 59 1014.5
20260905121004 59 355 2.0 3.0 0.00 0.01 0.00 60 1014.4
20260905120504 59 355 1.0 2.0 0.00 0.01 0.00 60 1014.5
20260905115005 59 355 0.0 0.0 0.00 0.01 0.00 60 1014.5
20260905114504 59 355 0.0 0.0 0.00 0.01 0.00 60 1014.6
20260905114005 59 355 0.0 0.0 0.00 0.01 0.00 59 1014.6
20260905113504 59 355 0.0 0.0 0.00 0.01 0.00 59 1014.6
20260905113005 59 355 0.0 0.0 0.00 0.01 0.00 59 1014.4
20260905112504 59 355 0.0 0.0 0.00 0.01 0.00 59 1014.4
20260905112004 59 355 0.0 0.0 0.00 0.01 0.00 59 1014.4
20260905111005 59 355 0.0 0.0 0.00 0.01 0.00 59 1014.7
20260905110504 59 355 0.0 0.0 0.00 0.01 0.00 59 1014.7
20260905105504 59 355 0.0 0.0 0.00 0.01 0.00 59 1014.7
20260905104005 60 355 0.0 0.0 0.00 0.01 0.00 58 1014.8
20260905103504 60 355 0.0 0.0 0.00 0.01 0.00 58 1014.8
20260905103004 60 355 0.0 0.0 0.00 0.01 0.00 58 1014.8
20260905102505 60 355 0.0 0.0 0.00 0.01 0.00 58 1014.9
20260905102005 60 355 0.0 0.0 0.00 0.01 0.00 57 1014.9
20260905101505 60 355 0.0 1.0 0.00 0.01 0.00 57 1014.9
20260905101004 60 355 0.0 0.0 0.00 0.01 0.00 57 1014.8
20260905100504 60 355 0.0 0.0 0.00 0.01 0.00 57 1014.8
20260905100005 60 355 0.0 1.0 0.00 0.01 0.00 56 1014.8
20260905095004 60 355 1.0 2.0 0.00 0.01 0.00 56 1014.7
20260905094503 60 355 1.0 2.0 0.00 0.01 0.00 56 1014.8
20260905094005 60 355 0.0 2.0 0.00 0.01 0.00 56 1014.8
20260905093504 61 355 0.0 2.0 0.00 0.01 0.00 55 1014.8
20260905093004 61 355 1.0 2.0 0.00 0.01 0.00 55 1015.0
20260905092004 61 355 1.0 2.0 0.00 0.01 0.00 55 1014.9
20260905091504 61 355 1.0 3.0 0.00 0.01 0.00 55 1014.8
20260905091004 60 355 2.0 3.0 0.00 0.01 0.00 56 1014.8
20260905090504 59 355 0.0 0.0 0.00 0.01 0.00 57 1014.7
20260905090004 59 355 0.0 0.0 0.00 0.01 0.00 57 1014.9
20260905085504 59 355 0.0 0.0 0.00 0.01 0.00 57 1014.9
20260905085004 59 355 0.0 0.0 0.00 0.01 0.00 57 1014.9
20260905084504 59 355 0.0 0.0 0.00 0.01 0.00 57 1014.9
20260905083504 59 355 0.0 0.0 0.00 0.01 0.00 57 1014.9
20260905083004 59 355 0.0 0.0 0.00 0.01 0.00 57 1014.9
20260905082506 59 355 0.0 0.0 0.00 0.01 0.00 57 1015.0
20260905082005 59 355 0.0 0.0 0.00 0.01 0.00 57 1015.0
20260905081504 59 355 0.0 0.0 0.00 0.01 0.00 57 1014.9
20260905081004 59 355 0.0 0.0 0.00 0.01 0.00 57 1015.0
20260905080505 59 355 0.0 0.0 0.00 0.01 0.00 57 1015.0
20260905080004 59 355 0.0 0.0 0.00 0.01 0.00 57 1015.1
20260905075505 59 355 0.0 0.0 0.00 0.01 0.00 58 1015.0
20260905075004 58 355 0.0 0.0 0.00 0.01 0.00 58 1015.0
20260905074504 58 355 0.0 0.0 0.00 0.01 0.00 58 1015.0
20260905074004 58 355 0.0 0.0 0.00 0.01 0.00 59 1015.0
20260905072504 57 355 0.0 0.0 0.00 0.01 0.00 60 1014.9
20260905072005 57 355 0.0 0.0 0.00 0.01 0.00 61 1014.9
20260905071504 57 355 0.0 2.0 0.00 0.01 0.00 62 1014.9
20260905070504 57 355 1.0 3.0 0.00 0.01 0.00 61 1014.8
20260905070004 57 355 1.0 2.0 0.00 0.01 0.00 62 1014.8
20260905065505 57 355 0.0 2.0 0.00 0.01 0.01 61 1014.9
20260905065004 57 355 0.0 0.0 0.00 0.01 0.01 60 1014.9
20260905064003 57 355 0.0 0.0 0.00 0.01 0.01 61 1014.9
20260905063504 57 355 0.0 0.0 0.00 0.01 0.01 61 1014.9
20260905063004 57 355 0.0 2.0 0.00 0.01 0.01 61 1015.0
20260905062504 57 355 1.0 2.0 0.00 0.01 0.01 61 1015.0
20260905062004 57 355 1.0 2.0 0.00 0.01 0.01 60 1015.0
20260905061511 57 355 1.0 2.0 0.00 0.01 0.01 60 1014.9
20260905061004 58 355 1.0 2.0 0.00 0.01 0.01 61 1014.9
20260905060504 58 355 0.0 1.0 0.00 0.01 0.01 61 1015.0
20260905060004 58 355 0.0 0.0 0.00 0.01 0.01 61 1015.0
20260905055503 58 355 0.0 0.0 0.00 0.01 0.01 61 1015.0
20260905054504 58 355 1.0 2.0 0.00 0.01 0.01 62 1015.1
20260905054003 58 355 0.0 0.0 0.00 0.01 0.01 61 1015.1
20260905053504 58 355 0.0 1.0 0.00 0.01 0.01 60 1015.1
20260905053004 58 355 1.0 1.0 0.00 0.01 0.01 60 1015.1
20260905052504 58 355 0.0 2.0 0.00 0.01 0.01 58 1015.2
20260905051504 59 355 0.0 1.0 0.00 0.01 0.01 55 1015.3
20260905050504 60 355 0.0 2.0 0.00 0.01 0.01 53 1015.3
20260905050004 60 355 1.0 2.0 0.00 0.01 0.01 53 1015.4
20260905045504 60 355 1.0 2.0 0.00 0.01 0.01 51 1015.3
20260905045005 60 355 1.0 3.0 0.00 0.01 0.01 50 1015.4
20260905044504 60 355 1.0 3.0 0.00 0.01 0.01 50 1015.3
20260905044004 60 355 1.0 2.0 0.00 0.01 0.01 50 1015.2
20260905043504 60 355 0.0 0.0 0.00 0.01 0.01 50 1015.2
20260905043004 61 355 0.0 0.0 0.00 0.01 0.01 50 1015.2
20260905042004 61 355 0.0 0.0 0.00 0.01 0.01 50 1015.1
20260905041504 61 355 0.0 0.0 0.00 0.01 0.01 50 1015.1
20260905041004 61 355 0.0 0.0 0.00 0.01 0.01 50 1015.0
20260905040504 61 355 0.0 0.0 0.00 0.01 0.01 51 1015.0
20260905040004 61 355 0.0 0.0 0.00 0.01 0.01 52 1014.8
20260905035503 62 355 0.0 0.0 0.00 0.01 0.01 50 1014.8
20260905035004 62 355 0.0 0.0 0.00 0.01 0.01 51 1014.8
20260905034504 62 355 0.0 2.0 0.00 0.01 0.01 50 1014.8
20260905034004 62 355 1.0 2.0 0.00 0.01 0.01 48 1014.7
20260905033004 63 355 0.0 0.0 0.00 0.01 0.01 51 1014.7
20260905032504 63 355 0.0 0.0 0.00 0.01 0.01 52 1014.7
20260905032004 63 355 0.0 0.0 0.00 0.01 0.01 52 1014.6
20260905031504 63 355 0.0 0.0 0.00 0.01 0.01 50 1014.5
20260905031004 63 355 0.0 0.0 0.00 0.01 0.01 51 1014.6
20260905030504 63 355 0.0 0.0 0.00 0.01 0.01 51 1014.6
20260905030003 63 355 0.0 0.0 0.00 0.01 0.01 51 1014.6
20260905025504 63 355 0.0 0.0 0.00 0.01 0.01 51 1014.5
20260905025004 64 355 0.0 0.0 0.00 0.01 0.01 51 1014.4
20260905024004 64 355 0.0 0.0 0.00 0.01 0.01 51 1014.4
20260905023504 64 355 0.0 0.0 0.00 0.01 0.01 50 1014.4
20260905023004 64 355 0.0 0.0 0.00 0.01 0.01 50 1014.4
20260905022504 64 355 0.0 0.0 0.00 0.01 0.01 50 1014.5
20260905022004 65 355 0.0 2.0 0.00 0.01 0.01 49 1014.5
20260905021506 65 355 0.0 1.0 0.00 0.01 0.01 48 1014.3
20260905021005 65 355 0.0 2.0 0.00 0.01 0.01 48 1014.4
20260905020505 65 355 1.0 2.0 0.00 0.01 0.01 48 1014.2
20260905020005 65 355 0.0 3.0 0.00 0.01 0.01 48 1014.4
20260905015505 65 5 1.0 3.0 0.00 0.01 0.01 47 1014.3
20260905015005 65 325 1.0 3.0 0.00 0.01 0.01 47 1014.5
20260905014505 66 277 1.0 3.0 0.00 0.01 0.01 47 1014.4
20260905014004 66 277 0.0 3.0 0.00 0.01 0.01 46 1014.5
20260905013005 68 276 2.0 3.0 0.00 0.01 0.01 45 1014.2
20260905012505 68 180 3.0 5.0 0.00 0.01 0.01 44 1014.2
20260905011505 69 186 2.0 6.0 0.00 0.01 0.01 44 1014.2
20260905005504 67 260 2.0 7.0 0.00 0.01 0.01 44 1014.2
20260905004504 68 142 5.0 10.0 0.00 0.01 0.01 42 1014.2
20260905004005 68 296 3.0 8.0 0.00 0.01 0.01 44 1014.1
20260905003006 67 276 4.0 10.0 0.00 0.01 0.01 44 1014.2
20260905002505 67 246 5.0 10.0 0.00 0.01 0.01 44 1014.1
20260905002005 67 320 5.0 9.0 0.00 0.01 0.01 43 1014.1
20260905001005 68 156 4.0 8.0 0.00 0.01 0.01 44 1014.1
20260905000505 68 335 4.0 8.0 0.00 0.01 0.01 43 1014.1
20260905000004 69 211 4.0 9.0 0.00 0.01 0.01 43 1014.0
20260904235504 69 217 2.0 9.0 0.00 0.01 0.01 43 1014.0
20260904234504 70 180 7.0 12.0 0.00 0.01 0.01 42 1014.2
20260904234004 70 210 7.0 12.0 0.00 0.01 0.01 42 1014.1
20260904233505 70 224 5.0 10.0 0.00 0.01 0.01 42 1014.0
20260904232504 70 210 3.0 7.0 0.00 0.01 0.01 43 1014.0
20260904231505 69 216 6.0 13.0 0.00 0.01 0.01 42 1014.2
20260904231004 70 191 6.0 12.0 0.00 0.01 0.01 42 1014.1
20260904230505 70 208 6.0 13.0 0.00 0.01 0.01 42 1014.2
20260904230005 70 198 5.0 9.0 0.00 0.01 0.01 44 1014.2
20260904225505 69 198 6.0 10.0 0.00 0.01 0.01 44 1014.2
20260904225005 68 220 7.0 12.0 0.00 0.01 0.01 46 1014.1
20260904224505 68 215 6.0 12.0 0.00 0.01 0.01 45 1014.2
20260904224005 69 171 7.0 12.0 0.00 0.01 0.01 46 1014.2
20260904223504 69 182 2.0 8.0 0.00 0.01 0.01 47 1014.3
20260904223005 69 202 6.0 12.0 0.00 0.01 0.01 47 1014.3
20260904222505 69 212 7.0 13.0 0.00 0.01 0.01 48 1014.3
20260904222005 69 187 5.0 12.0 0.00 0.01 0.01 49 1014.1
20260904221505 69 161 4.0 9.0 0.00 0.01 0.01 48 1014.2
20260904220505 69 207 7.0 13.0 0.00 0.01 0.01 48 1014.1
20260904220005 69 229 8.0 17.0 0.00 0.01 0.01 47 1014.4
20260904215505 70 236 7.0 16.0 0.00 0.01 0.01 51 1014.4
20260904215005 70 189 5.0 13.0 0.00 0.01 0.01 51 1014.1
20260904214504 69 210 5.0 13.0 0.00 0.01 0.01 52 1014.1
20260904214005 69 221 7.0 13.0 0.00 0.01 0.01 53 1014.0
20260904213504 69 197 5.0 12.0 0.00 0.01 0.01 57 1014.1
20260904213004 68 184 7.0 20.0 0.00 0.01 0.01 57 1014.2
20260904212505 68 189 5.0 9.0 0.00 0.01 0.01 61 1014.2
20260904212005 67 202 6.0 15.0 0.00 0.01 0.01 63 1014.3
20260904211504 67 207 6.0 12.0 0.00 0.01 0.01 64 1014.3
20260904211005 66 212 6.0 12.0 0.00 0.01 0.01 64 1014.3
20260904210505 66 206 6.0 10.0 0.00 0.01 0.01 66 1014.3
20260904205505 65 201 6.0 12.0 0.00 0.01 0.01 67 1014.4
20260904204505 65 227 6.0 9.0 0.00 0.01 0.01 68 1014.3
20260904204004 64 220 7.0 14.0 0.00 0.01 0.01 70 1014.3
20260904203005 64 213 3.0 9.0 0.00 0.01 0.01 72 1014.4
20260904202505 64 168 5.0 9.0 0.00 0.01 0.01 75 1014.4
20260904202005 63 171 3.0 7.0 0.00 0.01 0.01 76 1014.3
20260904201505 63 219 5.0 10.0 0.00 0.01 0.01 76 1014.3
20260904201004 62 193 3.0 8.0 0.00 0.01 0.01 79 1014.3
20260904200505 62 210 5.0 7.0 0.00 0.01 0.01 80 1014.3